Location: ??????
(36.0418°N, 43.6351°E)
Time: 06:01:46
(UTC+00:00)

Cosmos 1666 Rocket - Pass Details

Date: 07 March 2021
Orbit: 605 x 632 km, 82.5° (Epoch: 20 April)

Event Time Altitude Azimuth Distance (km) Brightness Sun altitude
Rises 02:42:52 0° 344° (NNW) 2,882 6.8 -9.9°
Reaches altitude 10° 02:45:11 10° 336° (NNW) 1,977 5.9 -9.4°
Maximum altitude 02:49:14 38° 269° (W) 946 4.0 -8.6°
Drops below altitude 10° 02:53:17 10° 201° (SSW) 1,979 6.0 -7.8°
Sets 02:55:37 0° 193° (SSW) 2,885 6.9 -7.3°
